www.pogodaiklimat.ru

Погода и климат >> Архив погоды >> Антарктида >> Butler Island


ПОГОДА в Butler Island

  • Прогноз погоды в Butler Island
  • Монитор погоды в Butler Island
  • Климат города

АРХИВ ПОГОДЫ в Butler Island

Время (UTC), дата Ветер
(напр.,м/с)
 
Видим.   Явления Облачность Т
(С)
Тd
(С)
f
(%)
Тe
(С)
Тes
(С)
Комфортность P
(гПа)
Po
(гПа)
Тmin
(С)
Tmax
(С)
R
(мм)
R24
(мм)
S
(см)
00 14.11 Ю 6 н/о н/о -7.7 -8.5 94 -16 -16 981.1 967.2
09 14.11 ЮЗ 4 н/о н/о -9.7 -10.7 92 -17 -17 983.5 969.4
12 14.11 ЮЗ 4 н/о н/о -9.3 -10.3 92 -16 -16 983.6 969.5
18 14.11 ЮВ 1 н/о н/о -4.5 -6.3 87 -7 -7 982.8 969.0
21 14.11 нст 1 н/о н/о -4.5 -6.4 87 -5 -5 982.6 968.8
00 15.11 нст 1 н/о н/о -7.7 -8.5 94 -8 -8 982.5 968.5
03 15.11 ЮЗ 2 н/о н/о -8.7 -9.4 95 -12 -12 982.4 968.4
06 15.11 Ю 5 н/о н/о -10.8 -11.8 92 -18 -18 982.1 968.0
09 15.11 Ю 7 н/о н/о -9.9 -11.0 92 -19 -19 982.1 968.0
12 15.11 Ю 7 н/о н/о -9.7 -10.9 91 -19 -19 982.0 967.9
15 15.11 Ю 7 н/о н/о -8.3 -9.8 89 -17 -17 981.5 967.5
18 15.11 Ю 7 н/о н/о -7.8 -9.4 88 -17 -17 981.1 967.2
21 15.11 Ю 7 н/о н/о -8.4 -9.8 90 -18 -18 980.9 966.9
00 16.11 Ю 8 н/о н/о -9.3 -10.3 92 -19 -19 981.0 967.0
03 16.11 Ю 8 н/о н/о -9.3 -10.2 93 -19 -19 980.5 966.5
06 16.11 Ю 7 н/о н/о -9.4 -10.3 93 -19 -19 980.5 966.5
09 16.11 Ю 8 н/о н/о -8.8 -9.6 94 -19 -19 980.4 966.4
12 16.11 Ю 9 н/о н/о -8.0 -8.8 94 -18 -18 980.2 966.3
15 16.11 Ю 11 н/о н/о -7.8 -8.7 93 -19 -19 979.5 965.6
18 16.11 Ю 13 н/о н/о -7.8 -8.7 93 -19 -19 979.1 965.2
21 16.11 ЮВ 15 н/о н/о -9.3 -10.3 92 -22 -22 979.7 965.7
00 17.11 ЮВ 16 н/о н/о -10.8 -11.9 92 -24 -24 980.4 966.3
03 17.11 ЮВ 16 н/о н/о -11.9 -13.1 91 -25 -25 980.6 966.4
06 17.11 ЮВ 15 н/о н/о -12.1 -13.3 91 -25 -25 981.1 966.9
09 17.11 ЮВ 16 н/о н/о -11.7 -13.0 90 -25 -25 980.8 966.7
12 17.11 Ю 13 н/о н/о -11.3 -12.6 90 -24 -24 980.6 966.5
15 17.11 ЮВ 16 н/о н/о -10.4 -11.7 90 -23 -23 980.1 966.0
18 17.11 ЮВ 16 н/о н/о -11.2 -12.6 89 -24 -24 979.9 965.8
21 17.11 ЮВ 16 н/о н/о -12.3 -13.8 89 -26 -26 980.6 966.4
00 18.11 ЮВ 13 н/о н/о -13.5 -15.1 88 -26 -26 980.4 966.2
03 18.11 ЮВ 12 н/о н/о -14.9 -16.8 85 -28 -28 980.2 965.9
06 18.11 ЮВ 11 н/о н/о -14.1 -16.0 85 -26 -26 979.4 965.1
09 18.11 Ю 8 н/о н/о -14.0 -16.2 83 -25 -25 978.7 964.5
12 18.11 Ю 9 н/о н/о -14.2 -16.5 83 -26 -26 977.3 963.1
15 18.11 Ю 9 н/о н/о -12.2 -14.3 84 -23 -23 975.4 961.3
18 18.11 Ю 8 н/о н/о -11.5 -14.0 82 -22 -22 974.0 960.0
21 18.11 Ю 5 н/о н/о -11.4 -13.5 84 -19 -19 973.1 959.1
00 19.11 Ю 4 н/о н/о -12.4 -14.3 86 -19 -19 972.1 958.0
03 19.11 Ю 4 н/о н/о -13.5 -15.5 85 -21 -21 970.9 956.8
06 19.11 Ю 5 н/о н/о -14.4 -17.0 81 -23 -23 970.0 955.9
09 19.11 Ю 2 н/о н/о -13.2 -15.1 86 -18 -18 969.9 955.8
12 19.11 нст 1 н/о н/о -8.9 -13.1 72 -9 -9 969.0 955.2
15 19.11 н/о н/о -6.6 -11.9 66 968.6 954.9
18 19.11 СЗ 2 н/о н/о -9.3 -13.3 73 -14 -14 968.4 954.6
21 19.11 С 2 н/о н/о -9.5 -13.7 71 -13 -13 968.4 954.5
00 20.11 СЗ 2 н/о н/о -11.7 -14.9 77 -16 -16 968.5 954.5
03 20.11 ЮЗ 2 н/о н/о -12.5 -15.2 80 -16 -16 968.4 954.4
06 20.11 Ю 4 н/о н/о -15.1 -16.7 88 -23 -23 968.7 954.5
09 20.11 Ю 5 н/о н/о -14.0 -16.0 85 -22 -22 968.6 954.5
12 20.11 Ю 5 н/о н/о -12.3 -14.2 86 -20 -20 969.0 955.0
15 20.11 Ю 4 н/о н/о -10.5 -12.6 85 -18 -18 968.6 954.7
18 20.11 Ю 5 н/о н/о -10.2 -12.6 83 -18 -18 968.8 954.9
21 20.11 Ю 7 н/о н/о -10.8 -12.8 85 -20 -20 969.1 955.2

 

Местоположение метеостанции Butler Island (Антарктида): широта -72.20 долгота -60.17 высота над уровнем моря 205 м.

В архиве по умолчанию представлена погода в Butler Island за последнюю неделю. Архивные данные за месяц целиком и за предыдущие месяцы, начиная с января 2011 года, Вы можете получить, выбрав интересующий диапазон дат из раскрывающегося списка и нажав кнопку "Ввод!".


*Определитесь, кто Вы:
робот инопланетянин человек

Внимание! Время в таблицах - всемирное. Для получения местного времени необходимо прибавить поправку, которая в Butler Island равна 0 ч.

Смотрите также архив погоды в соседних городах и на ближайших метеорологических станциях:

Погода в Fossil Bluff (Антарктида) (300 км)
Погода в Limbert Aws (Антарктида) (409 км)
Погода в Sky Blue (Антарктида) (458 км)
Погода в San Martin Base (Антарктида) (525 км)
Погода в Larsen Ice Shelf (Антарктида) (580 км)
Погода в Rothera (Антарктида) (598 км)
Погода в Vernadsky (Антарктида) (790 км)
Погода в Palmer Station (Антарктида) (842 км)
Погода в Marambio Base (Антарктида) (898 км)
Погода в Base Belgrano Ii (Антарктида) (953 км)

Пояснения к столбцам:

Ветер - указаны скорость ветра в м/с - средняя за 10 мин, порывы в срок и между сроками (в фигурных скобках) и направление, откуда дует ветер: С - северный, СВ - северо-восточный, В - восточный, ЮВ - юго-восточный, Ю - южный, ЮЗ - юго-западный, З - западный, СЗ - северо-западный.
Видимость - горизонтальная дальность видимости в метрах или километрах. При видимости от 1 до 10 км при отсутствии осадков обычно наблюдается дымка, при ухудшении видимости до 1 км и менее - туман. В сухую погоду видимость может ухудшаться дымом, пылью или мглою.
Явления - указаны атмосферные явления, наблюдавшиеся в срок или в последний час перед сроком; фигурными скобками обозначены явления, наблюдавшиеся между сроками (за 1-3 часа до срока); квадратными скобками обозначены град или гололедные отложения с указанием их диаметра в мм.
Облачность - указаны через наклонную черту общая и нижняя облачность в баллах и высота нижней границы облаков в метрах; квадратными скобками обозначены формы облаков: Ci - перистые, Cs - перисто-слоистые, Cc - перисто-кучевые, Ac - высококучевые, As - высокослоистые, Sc - слоисто-кучевые, Ns - слоисто-дождевые, Cu - кучевые, Cb - кучево-дождевые. Подробнее классификацию облаков см. в Атласе облаков (PDF).
T - Температура воздуха - температура, измеренная на высоте 2 м над землей.
Td - Температура точки росы - температура, при понижении до которой содержащийся в воздухе водяной пар достигнет насыщения.
f - Относительная влажность воздуха - влажноcть воздуха, измеренная на высоте 2 м над землей.
Te - Эффективная температура - температура, которую ощущает одетый по сезону человек в тени. Характеристика душности погоды. При расчете учитывается влияние влажности воздуха и скорости ветра на теплоощущения человека.
Tes - Эффективная температура на солнце - температура, которую ощущает человек, с поправкой на солнечный нагрев. Характеристика знойности погоды. Зависит от высоты солнца над горизонтом, облачности и скорости ветра. Ночью, в пасмурную погоду, а также при ветре 12 м/с и более поправка равна нулю.
P - Атмосферное давление - приведенное к уровню моря атмосферное давление.
Po - Атмосферное давление - измеренное на уровне метеостанции атмосферное давление.
Tmin - Минимальная температура - минимум температуры воздуха на высоте 2 м над землей.
Tmax - Максимальная температура - максимум температуры воздуха на высоте 2 м над землей.
R - Количество осадков - Количество выпавших осадков за период времени, мм. При наведении курсора мыши на число - период времени, за который выпало указанное количество осадков.
R24 - Количество осадков - Количество выпавших осадков за 24 часа, мм.
S - Снежный покров - Высота снежного покрова, см. При наведении курсора мыши на число - состояние снежного покрова и степень покрытия местности в баллах.